Livingston, MT

6:10 PM MST on February 27, 2017 (GMT -0700)
Mission

Weather History for KLVM - February, 2014

Change the Weather History Date:

Thursday, February 20, 2014

  Actual Average Record
Temperature  
Mean Temperature 28 °F 30 °F  
Max Temperature 34 °F 41 °F 70 °F (1995)
Min Temperature 22 °F 19 °F -10 °F (1949)
Degree Days  
Heating Degree Days 37 35  
Month to date heating degree days 898 731  
Since 1 July heating degree days 4843 5072  
Cooling Degree Days 0 0  
Month to date cooling degree days 0  
Year to date cooling degree days 0  
Moisture  
Dew Point 15 °F    
Average Humidity 58    
Maximum Humidity 81    
Minimum Humidity 35    
Precipitation  
Precipitation T in 0.02 in 0.20 in (2011)
Month to date precipitation 0.20 0.34  
Year to date precipitation 0.61 0.83  
Sea Level Pressure  
Sea Level Pressure 29.91 in    
Wind  
Wind Speed 24 mph (WSW)    
Max Wind Speed 41 mph    
Max Gust Speed 57 mph    
Visibility 8 miles    
Events Snow    
T = Trace of Precipitation, MM = Missing Value Source: NWS Daily Summary

Daily Weather History Graph

Daily Weather History Graph

Search for Another Location

Airport or City:

Trip Planner

Search our weather history database for the weather conditions in past years. The results will help you decide how hot, cold, wet, or windy it might be!

Date:

Astronomy

Feb. 20, 2014 Rise Set
Actual Time 7:15 AM MST 5:55 PM MST
Civil Twilight 6:45 AM MST 6:26 PM MST
Nautical Twilight 6:10 AM MST 7:00 PM MST
Astronomical Twilight 5:36 AM MST 7:35 PM MST
Moon No Moon Rise 9:42 AM MST (2/20)
Length of Visible Light 11h 40m
Length of Day
10h 40m
Waning Gibbous, 70% of the Moon is Illuminated
Feb 20
Waning Gibbous
Feb 22
Last Quarter
Mar 1
New
Mar 8
First Quarter
Mar 16
Full

Hourly Weather History & Observations

Time (MST) Temp. Windchill Dew Point Humidity Pressure Visibility Wind Dir Wind Speed Gust Speed Precip Events Conditions
12:06 AM 24.1 °F 10.6 °F 19.9 °F 84% 29.86 in 1.5 mi West 17.3 mph - 0.00 in Snow Light Snow
12:14 AM 24.1 °F 12.5 °F 19.9 °F 84% 29.86 in 3.0 mi West 12.7 mph - 0.00 in Snow Light Snow
12:53 AM 24.1 °F 13.1 °F 15.1 °F 69% 29.97 in 10.0 mi WSW 11.5 mph - 0.00 in   Mostly Cloudy
1:53 AM 25.0 °F 10.6 °F 12.9 °F 60% 29.98 in 10.0 mi West 20.7 mph 28.8 mph N/A   Scattered Clouds
2:53 AM 24.1 °F 10.1 °F 12.9 °F 62% 30.02 in 10.0 mi West 18.4 mph - N/A   Overcast
3:53 AM 23.0 °F 9.6 °F 10.9 °F 60% 30.04 in 10.0 mi West 16.1 mph - N/A   Clear
4:53 AM 23.0 °F 8.7 °F 10.9 °F 60% 30.05 in 10.0 mi WSW 18.4 mph - N/A   Clear
5:53 AM 23.0 °F 8.0 °F 9.0 °F 55% 30.07 in 10.0 mi WSW 20.7 mph - N/A   Partly Cloudy
6:53 AM 21.9 °F 6.9 °F 8.1 °F 55% 30.09 in 10.0 mi WSW 19.6 mph - N/A   Clear
7:53 AM 21.9 °F 9.8 °F 9.0 °F 58% 30.09 in 10.0 mi West 12.7 mph - N/A   Clear
8:53 AM 28.0 °F 12.0 °F 9.0 °F 45% 30.04 in 10.0 mi WSW 31.1 mph 35.7 mph N/A   Clear
9:53 AM 28.0 °F 11.5 °F 9.0 °F 45% 30.04 in 10.0 mi SW 33.4 mph 38.0 mph N/A   Clear
10:53 AM 33.1 °F 19.3 °F 9.0 °F 37% 30.01 in 10.0 mi SW 28.8 mph 38.0 mph N/A   Clear
11:53 AM 33.1 °F 19.8 °F 8.1 °F 35% 29.98 in 10.0 mi SW 26.5 mph 41.4 mph N/A   Overcast
12:53 PM 33.1 °F 18.7 °F 10.0 °F 38% 29.91 in 10.0 mi SW 32.2 mph 42.6 mph N/A   Overcast
1:53 PM 32.0 °F 16.7 °F 12.9 °F 45% 29.88 in 10.0 mi SSW 34.5 mph 44.9 mph N/A   Overcast
2:53 PM 32.0 °F 17.9 °F 15.1 °F 50% 29.88 in 5.0 mi SW 28.8 mph 49.5 mph 0.00 in Snow Light Snow
3:53 PM 30.9 °F 16.4 °F 16.0 °F 54% 29.87 in 7.0 mi SW 28.8 mph 46.0 mph 0.00 in   Overcast
4:53 PM 30.9 °F 15.9 °F 16.0 °F 54% 29.84 in 8.0 mi SW 31.1 mph 46.0 mph 0.00 in   Overcast
5:40 PM 30.9 °F 15.3 °F 19.0 °F 61% 29.72 in 3.0 mi SW 34.5 mph 47.2 mph 0.00 in Snow Light Snow
5:53 PM 32.0 °F 16.7 °F 19.0 °F 59% 29.81 in 6.0 mi SW 34.5 mph 46.0 mph 0.00 in Snow Light Snow
6:53 PM 34.0 °F 20.8 °F 19.0 °F 54% 29.81 in 8.0 mi SW 27.6 mph 46.0 mph 0.00 in Snow Light Snow
7:09 PM 33.1 °F 19.1 °F 19.0 °F 56% 29.71 in 8.0 mi SW 29.9 mph 41.4 mph 0.00 in Snow Light Snow
7:23 PM 33.1 °F 22.6 °F 19.9 °F 59% 29.73 in 10.0 mi West 16.1 mph 42.6 mph 0.00 in   Overcast
7:53 PM 30.0 °F 19.5 °F 25.0 °F 82% 29.86 in 9.0 mi West 13.8 mph - 0.00 in Snow Light Snow
8:53 PM 33.1 °F 20.6 °F 19.0 °F 56% 29.83 in 10.0 mi West 23.0 mph - 0.00 in   Overcast
9:53 PM 30.9 °F 17.5 °F 19.9 °F 64% 29.85 in 10.0 mi WSW 24.2 mph 31.1 mph 0.00 in   Mostly Cloudy
10:53 PM 30.9 °F 19.1 °F 19.9 °F 64% 29.86 in 9.0 mi West 18.4 mph - 0.00 in Snow Light Snow
11:53 PM 30.0 °F 15.7 °F 19.0 °F 64% 29.84 in 10.0 mi WSW 26.5 mph 34.5 mph 0.00 in   Partly Cloudy